軌道要素
Epoch 2018 Nov. 18.0 TT = JDT 2458440.5
T 2018 Nov. 12.52489 TT MPCW
q 1.8856728 (2000.0) P Q
n 0.14145515 Peri. 17.88912 +0.27904751 +0.94252156
a 3.6480172 Node 268.62686 -0.90197765 +0.19158102
e 0.4830965 Incl. 10.59475 -0.32949781 +0.27376964
P 6.97
From 69 observations 2018 May 18-Oct. 27, mean residual 0".4.
|